Muskegon, MI

2:27 AM EST on November 17, 2019 (GMT -0500)
Muskegon County

Weather History for KMKG - October, 2019

Change the Weather History Date:

Sunday, October 20, 2019

  Actual Average Record
Temperature  
Mean Temperature 52 °F 49 °F  
Max Temperature 60 °F 57 °F 80 °F (1971)
Min Temperature 44 °F 41 °F 24 °F (1952)
Degree Days  
Heating Degree Days 13 16  
Month to date heating degree days 240 256  
Since 1 July heating degree days 282 429  
Cooling Degree Days 0 0  
Month to date cooling degree days 8 2  
Year to date cooling degree days 640 563  
Growing Degree Days 2 (Base 50)    
Moisture  
Dew Point 48 °F    
Average Humidity 81    
Maximum Humidity 100    
Minimum Humidity 61    
Precipitation  
Precipitation 0.01 in 0.10 in 1.87 in (1995)
Month to date precipitation 5.03 1.99  
Year to date precipitation 38.01 26.46  
Snow  
Snow 0.00 in 0.00 in 0.40 in (1992)
Month to date snowfall 0.0 0.0  
Since 1 July snowfall 0.0 0.0  
Since 1 September snowfall 0.0 0.0  
Snow Depth 0.00 in    
Sea Level Pressure  
Sea Level Pressure 29.89 in    
Wind  
Wind Speed 4 mph (WNW)    
Max Wind Speed 12 mph    
Max Gust Speed 14 mph    
Visibility 7 miles    
Events Fog , Rain    
T = Trace of Precipitation, MM = Missing Value Source: NWS Daily Summary

Daily Weather History Graph

Daily Weather History Graph

Search for Another Location

Airport or City:

Astronomy

Oct. 20, 2019 Rise Set
Actual Time 8:04 AM EDT 6:54 PM EDT
Civil Twilight 7:35 AM EDT 7:23 PM EDT
Nautical Twilight 7:02 AM EDT 7:56 PM EDT
Astronomical Twilight 6:29 AM EDT 8:29 PM EDT
Moon 11:56 PM EDT (10/20) 2:38 PM EDT (10/20)
Length of Visible Light 11h 47m
Length of Day
10h 49m
Waning Gibbous, 59% of the Moon is Illuminated
Oct 20
Waning Gibbous
Oct 21
Last Quarter
Oct 27
New
Nov 4
First Quarter
Nov 12
Full

Hourly Weather History & Observations

Time (EDT) Temp. Dew Point Humidity Pressure Visibility Wind Dir Wind Speed Gust Speed Precip Events Conditions
12:55 AM 55.0 °F 43.0 °F 64% 29.75 in 10.0 mi SSE 8.1 mph - N/A   Overcast
1:55 AM 54.0 °F 45.0 °F 72% 29.76 in 10.0 mi SE 9.2 mph - 0.00 in Rain Light Rain
2:55 AM 52.0 °F 48.0 °F 86% 29.77 in 10.0 mi SSE 4.6 mph - 0.01 in Rain Light Rain
3:55 AM 52.0 °F 48.9 °F 89% 29.76 in 10.0 mi Calm Calm - 0.00 in   Overcast
4:55 AM 52.0 °F 48.9 °F 89% 29.76 in 10.0 mi Calm Calm - N/A   Overcast
5:55 AM 51.1 °F 48.9 °F 92% 29.78 in 7.0 mi Calm Calm - N/A   Overcast
6:55 AM 54.0 °F 50.0 °F 86% 29.82 in 10.0 mi NW 3.5 mph - N/A   Overcast
7:55 AM 54.0 °F 50.0 °F 86% 29.83 in 10.0 mi NW 4.6 mph - N/A   Overcast
8:45 AM 54.0 °F 48.9 °F 83% 29.85 in 8.0 mi NNW 9.2 mph - N/A   Overcast
8:55 AM 54.0 °F 50.0 °F 86% 29.86 in 7.0 mi NNW 8.1 mph - N/A   Overcast
9:55 AM 54.0 °F 50.0 °F 86% 29.88 in 5.0 mi North 4.6 mph - N/A   Overcast
10:55 AM 54.0 °F 50.0 °F 86% 29.92 in 6.0 mi NW 6.9 mph - N/A   Overcast
11:37 AM 55.0 °F 48.9 °F 80% 29.93 in 10.0 mi NW 6.9 mph - N/A   Overcast
11:55 AM 55.9 °F 48.9 °F 77% 29.93 in 10.0 mi NW 5.8 mph - N/A   Overcast
12:30 PM 57.9 °F 50.0 °F 75% 29.93 in 10.0 mi NW 5.8 mph - N/A   Scattered Clouds
12:55 PM 59.0 °F 48.9 °F 69% 29.93 in 10.0 mi West 4.6 mph - N/A   Scattered Clouds
1:55 PM 59.0 °F 48.9 °F 69% 29.92 in 10.0 mi WNW 8.1 mph - N/A   Partly Cloudy
2:55 PM 59.0 °F 48.9 °F 69% 29.91 in 10.0 mi West 6.9 mph - N/A   Partly Cloudy
3:55 PM 57.0 °F 48.0 °F 72% 29.92 in 10.0 mi West 6.9 mph - N/A   Partly Cloudy
4:55 PM 57.0 °F 48.9 °F 74% 29.94 in 10.0 mi West 6.9 mph - N/A   Partly Cloudy
5:55 PM 55.0 °F 48.0 °F 77% 29.94 in 10.0 mi West 4.6 mph - N/A   Partly Cloudy
6:49 PM 50.0 °F 46.4 °F 87% 29.95 in 0.2 mi West 5.8 mph - N/A   Partly Cloudy
6:55 PM 50.0 °F 46.9 °F 89% 29.96 in 0.2 mi West 5.8 mph - N/A Fog Fog
7:55 PM 48.9 °F 46.9 °F 93% 29.97 in 0.2 mi West 4.6 mph - N/A Fog Fog
8:55 PM 48.9 °F 46.9 °F 93% 29.97 in 0.2 mi West 3.5 mph - N/A Fog Fog
9:55 PM 48.9 °F 48.0 °F 97% 29.97 in 0.2 mi Calm Calm - N/A Fog Fog
10:55 PM 48.9 °F 46.9 °F 93% 29.96 in 0.2 mi NNE 3.5 mph - N/A Fog Fog
11:05 PM 48.9 °F 46.9 °F 93% 29.95 in 0.2 mi ENE 3.5 mph - N/A Fog Fog
11:28 PM 46.9 °F 46.0 °F 97% 29.95 in 0.5 mi ESE 3.5 mph - N/A Fog Fog
11:55 PM 46.0 °F 44.1 °F 93% 29.96 in 0.2 mi Calm Calm - N/A Fog Fog